Probability
45 45 68 71 68 68 61 55 58 61 48 48 48 52 45 48 45 42 45 39 29 29 29 32 35 26 23 16 13 10 3 6 6 6 3 6 3 3 3 3 3 3 3
39 45 68 68 68 65 61 55 55 61 61 55 52 52 45 42 39 42 39 29 35 32 26 29 29 29 19 13 6 6 3 3 0 6 0 3 6 3 3 3 3 3 3
42 42 65 65 65 61 58 55 55 52 55 48 55 42 39 42 39 39 39 32 32 26 23 19 26 19 19 23 13 10 6 6 3 3 0 0 0 3 3 3 6 3 0
32 45 58 65 61 61 52 55 48 48 52 52 48 45 39 35 39 39 39 32 32 29 19 19 16 19 16 16 16 13 10 6 6 0 0 0 0 0 0 0 0 0 0
32 45 55 61 55 52 52 45 48 42 45 42 45 35 39 32 35 39 39 39 39 32 26 23 23 19 19 13 13 13 10 10 6 0 0 0 0 0 3 0 0 0 0
32 39 45 55 55 48 52 52 45 45 42 45 42 42 39 32 29 32 42 42 35 29 26 16 23 19 16 16 10 10 10 10 3 0 0 0 0 0 6 3 0 0 0
32 35 42 52 55 52 55 52 48 45 39 32 32 32 35 32 29 42 42 32 26 26 23 23 23 19 10 16 6 10 13 6 0 0 0 0 0 0 3 3 3 0 0
26 32 39 45 45 48 45 48 45 45 39 32 32 35 39 35 29 32 29 26 23 23 23 26 26 19 16 13 10 10 10 0 0 0 0 0 0 3 3 6 6 3 3
23 23 35 35 39 45 45 48 48 42 39 35 35 35 29 29 35 29 19 16 19 23 26 23 23 13 10 10 13 13 6 0 0 0 0 0 3 10 6 6 10 10 6
16 19 32 29 35 29 29 35 39 32 29 32 29 19 10 10 13 13 10 13 23 23 23 23 23 16 6 6 6 10 0 0 0 0 0 0 0 6 6 6 6 6 10
10 13 16 19 23 19 26 29 19 19 16 19 13 3 0 0 0 6 0 6 13 13 13 16 10 10 0 0 0 0 0 0 0 0 0 0 3 3 3 6 6 6 6
10 13 16 13 13 16 13 13 16 6 6 10 10 0 0 0 0 0 0 3 6 3 6 10 6 0 0 0 0 0 0 0 0 0 0 0 10 3 3 6 6 6 6
10 6 6 16 13 13 13 6 6 3 6 6 0 0 0 0 0 0 0 0 0 0 0 0 0 0 0 0 0 0 0 0 0 0 0 0 6 3 3 6 6 6 6
6 6 6 6 10 10 10 10 6 3 3 0 0 0 0 0 0 0 0 0 0 0 0 0 0 0 0 0 0 0 0 0 0 0 0 0 6 6 3 6 10 6 6
10 6 6 6 16 13 10 6 3 0 0 0 0 0 0 0 0 0 0 0 0 0 0 0 0 0 0 0 0 0 0 0 0 0 0 0 0 6 6 3 6 10 6
6 6 3 0 10 6 10 3 3 3 0 0 0 0 0 0 0 0 0 0 0 0 0 0 0 0 0 0 0 0 0 0 0 0 0 0 0 0 6 0 6 6 6
0 0 0 0 3 6 6 3 3 3 3 0 0 0 0 0 0 3 3 0 0 0 0 0 0 0 0 0 0 0 0 0 0 0 0 0 0 0 0 0 3 10 10
0 0 0 0 3 6 3 3 0 0 0 0 3 0 0 0 0 0 0 0 0 0 0 0 0 0 0 0 0 0 0 0 0 0 0 0 0 0 0 0 0 3 10
0 3 3 3 6 6 0 0 0 0 0 0 3 3 0 0 0 0 0 0 0 0 0 0 0 0 0 0 0 0 0 0 0 0 0 0 0 0 0 0 0 0 0
0 0 0 6 6 3 0 0 0 0 0 0 0 0 0 0 0 0 0 0 0 0 0 0 0 0 0 0 0 0 0 0 0 0 0 0 0 0 0 0 0 0 0
0 0 0 0 0 0 0 0 0 0 0 0 0 0 0 0 0 0 0 0 0 0 0 0 0 0 0 0 0 0 0 0 0 0 0 0 0 0 0 0 0 0 0
0 0 0 0 0 0 0 0 0 0 0 0 0 0 0 0 0 0 0 0 0 0 0 0 0 0 0 0 0 0 0 0 0 0 0 0 0 0 0 0 0 0 0
0 0 0 0 0 0 0 0 0 0 0 0 0 0 0 0 0 0 0 0 0 0 0 0 0 0 0 0 0 0 0 0 0 0 0 0 0 0 0 0 0 0 0
0 0 0 0 0 0 0 0 0 0 0 0 0 0 0 0 0 0 0 0 0 0 0 0 0 0 0 0 0 0 0 0 0 0 0 0 0 0 0 0 0 0 0
0 0 0 0 0 0 0 0 0 0 0 0 0 0 0 0 0 0 0 0 0 0 0 0 0 0 0 0 0 0 0 0 0 0 0 0 0 0 0 0 0 0 0
0 0 0 0 0 0 0 0 0 0 0 0 0 0 0 0 0 0 0 0 0 0 0 0 0 0 0 0 0 0 0 0 0 0 0 0 0 0 0 0 0 0 0
Height
5840 5842 5843 5845 5847 5848 5850 5852 5853 5854 5855 5857 5858 5859 5860 5861 5863 5864 5865 5866 5867 5868 5869 5869 5870 5871 5872 5872 5873 5874 5874 5875 5875 5875 5876 5876 5876 5876 5876 5876 5876 5875 5875
5836 5838 5840 5842 5844 5845 5847 5849 5850 5852 5853 5854 5856 5857 5858 5859 5861 5862 5863 5864 5865 5866 5867 5868 5869 5870 5870 5871 5872 5872 5873 5873 5874 5874 5874 5875 5875 5875 5875 5874 5874 5874 5874
5831 5834 5835 5838 5840 5842 5844 5846 5847 5849 5850 5852 5853 5855 5856 5857 5859 5860 5861 5862 5863 5864 5865 5866 5867 5868 5869 5869 5870 5871 5871 5872 5872 5872 5873 5873 5873 5873 5873 5873 5873 5873 5872
5826 5829 5831 5834 5836 5838 5840 5842 5844 5846 5847 5849 5850 5852 5853 5855 5856 5857 5859 5860 5861 5862 5863 5864 5865 5866 5867 5867 5868 5869 5869 5870 5870 5870 5871 5871 5871 5871 5871 5871 5871 5871 5870
5821 5824 5827 5829 5832 5834 5837 5839 5840 5842 5844 5846 5847 5848 5850 5851 5853 5854 5856 5857 5858 5859 5860 5861 5862 5863 5864 5865 5866 5866 5867 5867 5868 5868 5868 5869 5869 5869 5869 5869 5869 5868 5868
5815 5818 5821 5824 5827 5830 5832 5834 5837 5838 5840 5842 5844 5845 5846 5848 5849 5851 5852 5854 5855 5856 5857 5858 5859 5860 5861 5862 5863 5863 5864 5864 5865 5865 5866 5866 5866 5866 5866 5866 5866 5866 5865
5808 5812 5815 5819 5822 5825 5827 5830 5832 5834 5836 5838 5840 5841 5843 5844 5846 5847 5849 5850 5851 5853 5854 5855 5856 5857 5858 5859 5860 5860 5861 5861 5862 5862 5862 5863 5863 5863 5863 5863 5863 5863 5862
5802 5806 5809 5813 5816 5819 5822 5825 5827 5829 5831 5833 5835 5837 5838 5840 5842 5843 5845 5846 5847 5849 5850 5851 5852 5853 5854 5855 5856 5857 5857 5858 5858 5859 5859 5859 5859 5859 5859 5859 5859 5859 5859
5795 5799 5803 5807 5810 5813 5816 5819 5822 5824 5826 5829 5830 5832 5834 5836 5837 5839 5840 5842 5843 5845 5846 5847 5849 5850 5850 5851 5852 5853 5854 5854 5855 5855 5855 5855 5855 5855 5855 5855 5855 5855 5855
5788 5792 5797 5801 5804 5808 5811 5814 5817 5819 5821 5823 5825 5827 5829 5831 5832 5834 5836 5837 5839 5840 5842 5843 5844 5845 5846 5847 5848 5849 5849 5850 5850 5851 5851 5851 5851 5851 5850 5850 5850 5850 5850
5782 5787 5791 5795 5799 5802 5805 5808 5811 5813 5815 5818 5820 5822 5824 5826 5827 5829 5831 5832 5834 5836 5837 5839 5840 5841 5842 5843 5843 5844 5845 5845 5846 5846 5846 5846 5846 5846 5845 5845 5845 5845 5845
5776 5781 5786 5789 5792 5796 5799 5802 5805 5808 5810 5812 5814 5817 5819 5820 5822 5824 5826 5828 5829 5831 5833 5834 5835 5836 5837 5838 5838 5839 5839 5840 5840 5841 5840 5841 5840 5840 5840 5840 5840 5840 5840
5772 5776 5780 5783 5786 5790 5793 5796 5799 5802 5804 5807 5809 5811 5813 5815 5817 5819 5821 5823 5825 5826 5828 5829 5830 5831 5832 5833 5833 5834 5834 5834 5835 5835 5835 5835 5835 5835 5835 5834 5834 5835 5835
5767 5771 5774 5777 5780 5784 5787 5790 5793 5796 5799 5801 5804 5806 5808 5810 5812 5814 5816 5818 5820 5822 5823 5824 5825 5826 5827 5827 5828 5828 5828 5829 5829 5829 5829 5829 5829 5829 5829 5829 5829 5829 5830
5762 5766 5769 5772 5775 5777 5781 5784 5787 5790 5793 5795 5798 5800 5803 5805 5807 5809 5811 5813 5815 5816 5818 5819 5820 5821 5821 5822 5822 5822 5823 5823 5823 5823 5823 5823 5823 5823 5823 5823 5823 5823 5823
5757 5761 5764 5767 5769 5772 5775 5778 5781 5784 5787 5789 5792 5795 5797 5799 5801 5803 5805 5808 5809 5811 5812 5813 5814 5815 5816 5816 5816 5816 5817 5817 5817 5817 5817 5817 5817 5817 5817 5817 5817 5817 5817
5753 5756 5759 5762 5764 5767 5768 5772 5775 5777 5780 5783 5786 5788 5791 5793 5796 5798 5800 5802 5803 5805 5806 5807 5808 5809 5810 5810 5810 5811 5811 5811 5811 5810 5811 5810 5810 5810 5810 5810 5810 5810 5810
5749 5752 5754 5757 5759 5762 5764 5766 5768 5771 5774 5777 5780 5782 5784 5787 5789 5792 5794 5796 5797 5799 5800 5801 5802 5803 5804 5804 5804 5805 5805 5804 5804 5804 5803 5803 5803 5803 5803 5803 5803 5803 5804
5745 5747 5749 5751 5754 5757 5759 5760 5762 5765 5767 5771 5773 5775 5778 5780 5783 5785 5787 5789 5791 5792 5794 5795 5796 5797 5797 5797 5798 5798 5798 5797 5797 5796 5796 5795 5795 5795 5796 5796 5796 5796 5796
5740 5742 5745 5747 5749 5751 5752 5754 5756 5758 5761 5764 5766 5768 5771 5773 5776 5778 5780 5782 5784 5786 5787 5788 5789 5790 5790 5791 5791 5791 5791 5790 5789 5789 5788 5788 5788 5788 5788 5789 5789 5789 5789
5736 5738 5740 5742 5744 5746 5747 5749 5751 5752 5754 5757 5759 5760 5763 5765 5768 5771 5773 5775 5777 5779 5780 5781 5782 5783 5783 5783 5784 5784 5783 5782 5782 5781 5781 5781 5781 5781 5781 5781 5781 5781 5781
5732 5734 5735 5737 5739 5741 5742 5743 5744 5746 5748 5750 5751 5753 5755 5757 5760 5763 5765 5768 5770 5772 5773 5774 5775 5776 5776 5776 5776 5776 5776 5776 5775 5774 5774 5774 5773 5774 5774 5773 5773 5774 5773
5728 5729 5731 5732 5734 5735 5735 5736 5737 5740 5741 5744 5745 5746 5747 5749 5752 5755 5758 5760 5762 5764 5765 5766 5768 5768 5769 5769 5769 5769 5769 5769 5768 5768 5767 5767 5766 5766 5767 5766 5766 5766 5765
5723 5724 5726 5726 5728 5728 5729 5730 5730 5733 5734 5736 5737 5739 5740 5741 5744 5747 5749 5752 5755 5757 5758 5759 5760 5761 5761 5762 5762 5762 5762 5762 5762 5762 5761 5760 5760 5760 5759 5759 5758 5758 5757
5717 5719 5720 5720 5721 5722 5723 5724 5724 5725 5727 5729 5731 5731 5733 5735 5737 5739 5742 5745 5747 5749 5750 5751 5752 5753 5754 5754 5754 5754 5754 5754 5754 5755 5755 5754 5753 5753 5752 5752 5751 5751 5750
5711 5712 5713 5714 5715 5715 5716 5716 5717 5718 5720 5722 5723 5724 5725 5727 5730 5732 5734 5737 5739 5741 5742 5743 5744 5745 5746 5746 5746 5746 5746 5747 5747 5747 5747 5747 5746 5746 5745 5744 5743 5743 5742
Wind_Speed
21 20 20 19 18 17 16 16 15 15 15 14 14 13 13 12 12 11 11 11 10 9 9 9 8 8 7 7 7 6 6 6 5 5 6 6 6 6 7 7 7 7 7
23 22 22 21 20 19 18 18 17 16 16 16 15 15 14 14 13 13 12 12 12 11 10 10 9 9 9 8 8 8 8 8 8 8 8 8 8 8 8 8 8 8 8
25 24 24 23 22 20 19 19 18 18 17 17 16 16 15 15 15 14 14 13 13 13 12 12 11 11 10 10 10 9 9 9 9 9 9 9 10 10 10 10 9 9 10
27 26 25 24 23 22 21 20 20 19 19 18 17 17 17 17 16 16 16 15 15 14 14 14 13 13 12 12 12 11 11 11 11 11 11 11 11 11 11 11 11 11 11
28 27 27 25 25 24 22 22 21 20 20 19 19 18 18 18 18 18 17 16 16 16 16 15 15 14 14 14 13 13 13 13 12 12 13 13 13 13 13 13 13 13 13
30 28 28 27 26 25 24 23 23 21 21 20 20 20 20 20 19 19 18 18 17 17 17 16 16 16 15 15 15 15 14 14 14 14 14 14 14 14 14 15 15 15 15
31 30 29 28 27 26 25 25 25 23 22 22 22 21 21 21 20 20 20 19 19 18 18 17 17 17 17 17 17 16 16 16 16 16 16 16 16 16 16 16 16 16 16
33 32 30 29 28 27 26 26 26 25 24 24 23 22 22 21 21 21 21 21 20 20 19 19 18 18 18 18 18 18 18 18 18 18 18 18 18 18 18 18 18 18 18
33 32 31 30 28 28 27 27 26 25 25 25 25 24 23 22 22 23 23 22 22 21 21 20 20 19 19 20 20 20 20 19 19 19 19 20 20 20 20 20 20 20 20
31 31 31 30 29 28 28 28 27 26 26 27 26 25 24 24 23 23 24 24 23 22 22 22 21 21 21 21 21 21 21 21 21 21 21 21 21 22 22 22 22 22 22
29 29 29 29 29 29 28 28 28 27 27 27 27 26 25 24 24 24 24 25 25 24 23 23 23 23 23 23 23 23 23 23 23 23 23 23 23 24 24 24 24 23 23
27 28 28 29 30 30 30 30 29 29 28 28 27 27 26 26 25 25 25 25 25 25 25 24 24 24 24 24 24 25 25 25 25 25 25 25 25 25 25 25 25 25 25
28 28 28 29 31 31 31 31 30 29 29 29 28 27 27 27 26 26 26 26 25 25 25 25 25 25 25 25 25 25 25 25 25 26 26 26 26 27 27 27 27 27 27
28 28 28 29 30 30 31 31 30 29 29 29 29 28 27 27 26 27 26 27 27 26 26 26 25 25 26 26 26 26 26 26 26 27 27 27 27 28 28 28 29 29 29
27 27 28 28 29 30 30 30 30 29 29 29 29 28 28 28 27 28 28 28 28 28 27 27 27 26 25 26 26 27 27 27 28 28 28 28 28 29 29 29 30 30 30
27 27 28 29 29 29 29 30 31 31 30 30 29 29 29 29 28 28 28 28 28 28 28 28 27 27 26 26 26 27 27 27 28 28 29 29 30 31 31 30 31 31 30
27 27 28 29 29 29 28 29 30 31 31 30 30 30 30 30 30 29 28 29 29 29 29 28 27 27 26 27 27 27 28 28 29 30 30 31 31 31 31 31 31 30 31
27 27 26 27 28 29 29 29 30 31 31 31 30 30 31 31 31 30 29 29 30 30 29 29 28 28 28 28 28 28 29 29 30 31 32 32 32 31 31 31 31 31 31
27 27 27 26 26 28 29 29 29 30 31 31 31 31 32 33 33 33 31 31 31 31 31 30 29 29 29 29 30 30 30 30 31 31 31 32 31 31 31 31 32 32 32
27 26 26 28 27 28 29 29 29 29 31 32 33 32 33 34 33 32 31 31 31 31 31 30 30 31 31 31 31 32 32 32 31 32 32 32 32 31 31 31 32 32 32
28 28 27 28 29 29 31 31 30 31 32 33 34 33 35 35 35 34 33 32 31 30 31 31 30 31 31 32 32 32 33 33 33 33 32 32 32 31 31 31 32 32 32
28 28 28 29 30 30 30 31 31 32 34 36 35 35 36 36 36 36 35 33 33 32 32 32 32 32 32 31 31 31 31 31 32 32 32 32 31 30 31 32 32 32 33
27 28 28 28 29 29 29 30 31 33 33 35 35 36 36 36 36 36 36 36 34 33 32 32 32 31 31 31 31 31 31 30 31 31 31 31 31 31 32 32 32 33 33
28 29 28 29 28 27 29 30 30 32 33 33 33 34 34 34 34 34 35 35 34 33 32 32 32 32 31 31 31 31 31 30 29 29 30 30 31 31 32 33 33 33 34
29 29 29 29 30 29 28 30 30 31 32 33 33 34 34 34 36 35 36 35 35 34 34 34 33 34 33 33 33 33 32 31 30 29 29 30 30 31 32 33 34 35 36
29 30 30 31 31 31 32 32 31 31 32 34 34 34 36 37 37 37 36 36 36 36 36 36 35 35 35 34 34 34 33 32 31 31 31 31 31 31 32 34 35 37 37
Wind_Direction
233 232 232 231 231 230 229 229 228 227 226 225 224 224 222 220 222 224 223 223 224 224 225 225 225 226 229 232 236 239 244 250 257 266 273 279 283 287 291 295 299 303 308
233 231 231 231 232 232 232 231 232 231 229 228 227 227 226 226 226 227 229 230 230 230 231 232 233 234 236 239 243 247 251 256 261 267 273 278 281 284 286 289 292 295 299
233 231 230 231 231 232 233 233 233 234 232 230 229 230 231 231 231 231 232 234 235 235 236 237 238 240 242 244 248 251 254 258 262 267 272 278 281 282 284 286 289 292 295
233 231 230 230 231 233 233 234 233 235 235 234 232 232 234 235 235 235 236 237 239 240 240 241 242 243 245 247 250 254 257 259 263 267 272 276 278 280 282 284 287 289 292
234 232 230 230 232 233 233 234 235 236 235 236 235 235 236 237 237 238 238 239 242 243 243 244 244 245 247 250 253 257 260 262 265 269 273 276 277 278 280 283 286 288 290
235 233 231 232 233 234 234 235 235 236 236 237 237 237 238 238 238 240 241 241 243 244 244 245 245 248 250 251 254 257 260 263 266 270 272 275 276 278 279 281 284 287 289
236 232 231 232 234 234 234 235 234 236 237 237 238 238 239 240 241 242 243 243 244 245 245 245 247 249 251 253 255 257 259 263 266 269 271 273 275 277 279 281 283 285 286
236 233 230 231 233 234 235 235 234 236 238 239 239 239 241 243 243 244 244 244 244 243 244 246 247 250 252 254 256 258 261 265 268 269 271 273 276 277 278 280 283 283 284
235 233 231 232 232 234 235 234 236 238 239 240 240 240 242 245 245 245 245 244 243 244 245 247 249 251 254 256 258 260 262 265 268 270 273 275 276 277 278 280 281 281 281
232 232 231 230 232 234 235 236 237 239 241 240 241 242 244 245 246 246 245 244 243 245 247 249 250 253 255 257 259 261 263 265 268 270 273 274 275 276 277 279 280 279 279
231 230 231 231 232 234 236 237 237 238 240 240 240 242 245 246 247 247 245 244 244 245 248 250 252 254 255 258 261 263 264 265 268 271 273 274 276 276 277 278 278 278 279
230 229 231 233 233 234 236 236 237 239 240 241 241 242 244 246 247 247 245 245 246 247 248 251 252 254 257 260 262 264 265 266 268 271 272 274 275 276 276 277 278 276 278
229 230 231 232 233 235 236 235 237 239 240 241 241 241 244 245 246 247 244 244 247 249 250 253 254 256 258 260 262 264 265 266 268 271 272 273 273 274 275 277 277 276 277
228 229 231 233 233 233 235 235 236 237 239 240 242 242 243 245 245 246 244 245 248 251 252 255 256 258 259 261 263 264 265 266 268 270 272 273 273 274 275 277 278 277 278
226 228 231 231 233 233 233 233 235 237 238 239 241 243 244 244 245 245 246 247 249 252 253 254 256 258 261 263 265 266 266 267 269 270 272 273 273 274 275 277 278 277 277
225 227 232 232 234 234 234 234 236 238 239 240 241 243 245 244 244 244 245 247 250 254 255 255 256 259 262 264 266 268 268 269 270 272 273 274 275 274 276 277 277 276 277
227 229 232 233 235 234 235 237 239 239 239 240 242 244 246 245 245 246 246 248 251 254 255 255 258 261 263 265 266 268 269 270 272 273 274 275 276 275 275 276 277 277 278
230 228 231 235 236 236 239 240 240 241 240 240 242 245 245 246 246 247 248 250 252 255 256 257 260 262 264 266 267 269 271 273 274 274 275 275 275 274 274 274 275 277 278
232 232 235 238 239 239 241 241 243 242 240 239 241 245 246 246 247 247 249 251 254 256 257 258 260 263 265 268 269 270 272 274 275 275 276 275 274 274 274 275 275 277 277
235 237 237 240 240 241 242 243 244 243 239 239 242 245 247 247 248 249 250 251 254 257 259 259 260 262 265 268 270 272 273 275 274 274 275 276 275 274 274 274 275 276 276
237 239 238 241 241 243 245 246 245 243 242 241 244 247 248 248 248 248 250 251 252 256 258 259 261 264 266 268 271 274 275 276 276 275 275 275 276 274 273 274 273 273 275
241 241 241 241 242 246 247 248 248 246 245 244 246 248 248 248 248 248 248 250 252 255 257 260 262 265 267 269 271 274 275 275 274 275 274 275 275 276 276 275 274 273 274
243 243 244 244 243 246 248 248 247 247 248 247 248 248 247 248 247 247 249 250 250 254 257 259 262 265 267 268 271 274 275 276 275 274 274 274 274 274 275 276 276 275 275
249 247 247 246 246 250 249 249 248 246 249 248 248 249 249 248 246 246 247 249 250 254 256 260 263 265 268 269 271 274 275 276 275 274 274 275 275 275 275 276 277 277 277
252 250 250 249 250 253 254 254 251 248 248 246 249 251 249 248 248 248 249 251 252 255 258 260 262 264 267 269 271 273 275 274 274 274 274 274 275 276 276 277 277 278 280
255 254 254 254 255 257 257 256 254 252 250 248 250 252 251 250 251 249 250 251 254 258 261 261 262 264 266 268 270 271 272 273 274 274 274 275 276 277 278 278 278 279 280